Regional Weather Roundup
Issued by NWS

Home | Current Version | Previous Version | Text Only | Print | Product List | Glossary On
Versions: 1 2 3 4 5 6 7 8 9 10 11 12 13 14 15 16 17 18 19 20 21 22 23 24 25 26 27 28 29 30 31 32 33 34 35 36 37 38 39 40 41 42 43 44 45 46 47 48 49 50
902
ASUS43 KDTX 171510
RWRMI
MICHIGAN HOURLY REGIONAL WEATHER ROUNDUP
NATIONAL WEATHER SERVICE DETROIT/PONTIAC MI
1000 AM EST SUN DEC 17 2017

NOTE: "FAIR" INDICATES FEW OR NO CLOUDS BELOW 12,000 FEET WITH NO
SIGNIFICANT WEATHER AND/OR OBSTRUCTION TO VISIBILITY.

MIZ047>049-052>055-059>063-066>070-074>076-081>083-171600-
SOUTHEAST LOWER MICHIGAN

CITY           SKY/WX    TMP DP  RH WIND       PRES   REMARKS
ADRIAN         CLOUDY    28  25  88 E8        30.18R WCI  20
ALMA           CLOUDY    25  23  91 E8        30.20S WCI  17
ANN ARBOR      CLOUDY    27  23  85 NE7       30.19R WCI  19
BAD AXE        CLOUDY    25  19  77 E6        30.24R WCI  18
CARO           CLOUDY    26  21  82 E6        30.21F WCI  19
DETROIT CITY   CLOUDY    28  24  85 E8        30.22R WCI  20
DETROIT        CLOUDY    32  26  78 E8        30.22R WCI  25
FLINT          CLOUDY    25  19  78 E8        30.21R WCI  16
GROSSE ILE     CLOUDY    28  25  88 NE6       30.20R WCI  22
HILLSDALE      FOG       28  27  93 E7        30.13F VSB 1/4 WCI  21
HOWELL         CLOUDY    27  26  94 E7        30.18R FOG     WCI  20

CITY           SKY/WX    TMP DP  RH WIND       PRES   REMARKS
JACKSON        CLOUDY    28  24  85 E9        30.15S FOG     WCI  19
LAMBERTVILLE   CLOUDY    30  28  90 E5        30.18F FOG     WCI  25
LANSING        CLOUDY    26  23  88 E9        30.18R WCI  17
LAPEER         CLOUDY    26  19  73 E5        30.21S WCI  20
MASON          CLOUDY    28  24  82 E6        30.18R HAZE    WCI  22
MONROE         CLOUDY    30  26  85 NE5       30.19R WCI  25
MT. CLEMENS    CLOUDY    26  23  89 E13       30.20R WCI  15
PONTIAC        CLOUDY    25  21  85 E8        30.18R WCI  16
PORT HOPE        N/A     26  21  81 SE10      30.24S WCI  16
PORT HURON     CLOUDY    23  18  80 E8        30.23F WCI  14
TRI CITIES     CLOUDY    26  23  88 E12       30.22R WCI  16
MIDLAND        CLOUDY    26  22  84 E9        30.22S WCI  17
TROY           CLOUDY    26  21  81 NE6       30.23R WCI  20
SAGINAW HB     CLOUDY    27  23  86 E7        30.22S WCI  19
$$
MIZ043>046-050>051-056>058-064>065-071>073-077>080-171600-
SOUTHWEST LOWER MICHIGAN

CITY           SKY/WX    TMP DP  RH WIND       PRES   REMARKS
BATTLE CREEK   CLOUDY    27  26  96 SE9       30.13S FOG     WCI  18
BENTON HARBOR  CLOUDY    28  24  85 E8        30.08F FOG     WCI  20
BIG RAPIDS     CLOUDY    22  19  88 E7        30.16F WCI  14
COLDWATER      CLOUDY    27  27 100 SE10      30.13F FOG     WCI  17
HOLLAND        CLOUDY    25  22  88 E14       30.13S FOG     WCI  13
GRAND RAPIDS   CLOUDY    24  23  96 E15       30.15S FOG     WCI  11
IONIA          CLOUDY    25  22  89 E8        30.16R WCI  16
KALAMAZOO      CLOUDY    28  26  92 SE8       30.13S FOG     WCI  20
LUDINGTON      CLOUDY    24  20  85 E10       30.15F WCI  13
MARSHALL       CLOUDY    27  27  98 E8        30.13F FOG     WCI  19
MOUNT PLEASANT CLOUDY    25  20  82 E7        30.19F WCI  17
MUSKEGON       CLOUDY    26  21  81 E12       30.14F WCI  16
SOUTH HAVEN    CLOUDY    28  26  91 E8        30.10F FOG     WCI  20
$$
MIZ016>042-171600-
NORTHERN LOWER MICHIGAN

CITY           SKY/WX    TMP DP  RH WIND       PRES   REMARKS
ALPENA         LGT SNOW  21  19  92 N3        30.26S FOG
BEAVER ISLAND  CLOUDY    23  19  84 SE8       30.22S WCI  14
BELLAIRE       CLOUDY    21  19  94 CALM      30.23S
CADILLAC       CLOUDY    19  18  96 E6        30.15S WCI  11
CHARLEVOIX     CLOUDY    19  16  91 E8        30.24F WCI   8
FRANKFORT      CLOUDY    24  20  85 E8        30.18S WCI  15
GAYLORD        CLOUDY    17  14  88 SE6       30.17F WCI   9
GRAYLING       CLOUDY    18  14  84 E7        30.19S WCI   8
HARBOR SPRINGS CLOUDY    15  11  83 E8        30.23S WCI   5
HOUGHTON LAKE  CLOUDY    20  18  92 E5        30.19S WCI  13
MANISTEE       CLOUDY    24  20  84 E12       30.17S WCI  13
OSCODA         CLOUDY    27  19  74 S6        30.24S WCI  20
PELLSTON       CLOUDY     7   4  87 CALM      30.24F
ROGERS CITY    CLOUDY    20  17  88 CALM      30.27S
TRAVERSE CITY  CLOUDY    21  18  88 E6        30.20F WCI  13
$$
MIZ007>008-015-171600-
EASTERN UPPER MICHIGAN

CITY           SKY/WX    TMP DP  RH WIND       PRES   REMARKS
KINROSS        FLURRIES   5   3  91 E6        30.26S WCI  -6
MACKINAC ISLAN CLOUDY    20  17  87 SE3       30.24S
NEWBERRY       CLOUDY    11  10  97 SE6       30.21S WCI   2
S. S. MARIE    CLOUDY     4   0  83 E5        30.28R FOG     WCI  -5
MUNISING         N/A     15  13  91 SW7       30.18F WCI   5
$$
MIZ004>006-011>014-085-171600-
CENTRAL UPPER MICHIGAN

CITY           SKY/WX    TMP DP  RH WIND       PRES   REMARKS
MANISTIQUE     CLOUDY    21  17  81 E3        30.19F
ESCANABA       CLOUDY    21  18  88 NE6       30.18F WCI  13
MENOMINEE      CLOUDY    29  24  82 SE10      30.16F WCI  20
SAWYER-GWINN   CLOUDY    16  50 100 S5        30.13F WCI   9
$$
MIZ001>003-009>011-084-171600-
WESTERN UPPER MICHIGAN

CITY           SKY/WX    TMP DP  RH WIND       PRES   REMARKS
IRON MOUNTAIN  CLOUDY    18  15  88 CALM      30.13S
HOUGHTON       CLOUDY    22  17  81 SW8       30.11F WCI  12
COPPER HARBOR    N/A     26  21  81 VRB5      30.14S WCI  20
IRONWOOD       CLOUDY    23  20  88 S7        30.09F WCI  15
$$

ABBREVIATIONS USED IN REMARKS
   TC - TEMPERATURE IN CELSIUS
  WCI - WIND CHILL INDEX
   HX - HEAT INDEX
  VSB - VISIBILITY





USA.gov is the U.S. government's official web portal to all federal, state and local government web resources and services.